contact:dominique.lefevre@mio.osupytheas.fr, maurice.libes@osupytheas.fr, didier.mallarino@osupytheas.fr
Project:EMSO http://www.emso-fr.org/EMSO-France
Depth: 2436.0 m
Title:EMSO Ligure Ouest : Data MII capteur CSTAR
DateTime,Latitude,Longitude,Instrument_Serial,Reference_Counts,Signal_Counts,Corrected_Signal_raw_counts,Calculated_Beam_c_inverse_meters,Internal_thermistor_counts
DateTime,Latitude,Longitude,Instrument_Serial,Reference_Counts,Signal_Counts,Corrected_Signal_raw_counts,Calculated_Beam_c_inverse_meters,Internal_thermistor_counts
2019-08-05T00:01:00,42.805,6.029,CST-1368DR,8416,11774,15438,0.046,551
2019-08-05T00:04:02,42.805,6.029,CST-1368DR,8416,11772,15435,0.047,551
2019-08-05T00:07:03,42.805,6.029,CST-1368DR,8416,11767,15429,0.048,551
2019-08-05T00:10:05,42.805,6.029,CST-1368DR,8416,11774,15438,0.046,551
2019-08-05T00:13:07,42.805,6.029,CST-1368DR,8416,11773,15437,0.046,551
2019-08-05T00:16:08,42.805,6.029,CST-1368DR,8416,11774,15437,0.046,551
2019-08-05T00:19:10,42.805,6.029,CST-1368DR,8416,11774,15438,0.046,551
2019-08-05T00:22:12,42.805,6.029,CST-1368DR,8416,11774,15437,0.046,551
2019-08-05T00:25:13,42.805,6.029,CST-1368DR,8416,11773,15436,0.046,551
2019-08-05T00:28:15,42.805,6.029,CST-1368DR,8416,11768,15429,0.048,551
2019-08-05T00:31:17,42.805,6.029,CST-1368DR,8416,11774,15437,0.046,550
2019-08-05T00:34:18,42.805,6.029,CST-1368DR,8416,11772,15435,0.047,551
2019-08-05T00:37:20,42.805,6.029,CST-1368DR,8416,11772,15435,0.047,551
2019-08-05T00:40:22,42.805,6.029,CST-1368DR,8416,11773,15436,0.046,551
2019-08-05T00:43:23,42.805,6.029,CST-1368DR,8416,11774,15437,0.046,551
2019-08-05T00:46:25,42.805,6.029,CST-1368DR,8416,11772,15435,0.047,551
2019-08-05T00:49:27,42.805,6.029,CST-1368DR,8416,11774,15437,0.046,551
2019-08-05T00:52:28,42.805,6.029,CST-1368DR,8416,11774,15438,0.046,551
2019-08-05T00:55:30,42.805,6.029,CST-1368DR,8416,11774,15438,0.046,551
2019-08-05T00:58:32,42.805,6.029,CST-1368DR,8416,11774,15437,0.046,551
2019-08-05T01:01:33,42.805,6.029,CST-1368DR,8416,11771,15434,0.047,551
2019-08-05T01:04:35,42.805,6.029,CST-1368DR,8416,11774,15438,0.046,550
2019-08-05T01:07:37,42.805,6.029,CST-1368DR,8416,11772,15435,0.047,551
2019-08-05T01:10:38,42.805,6.029,CST-1368DR,8416,11772,15435,0.047,551
2019-08-05T01:13:40,42.805,6.029,CST-1368DR,8416,11770,15432,0.047,551
2019-08-05T01:16:41,42.805,6.029,CST-1368DR,8416,11773,15436,0.046,551
2019-08-05T01:19:43,42.805,6.029,CST-1368DR,8416,11773,15436,0.046,551
2019-08-05T01:22:45,42.805,6.029,CST-1368DR,8416,11772,15434,0.047,551
2019-08-05T01:25:46,42.805,6.029,CST-1368DR,8416,11773,15436,0.046,551
2019-08-05T01:28:48,42.805,6.029,CST-1368DR,8416,11774,15437,0.046,551
2019-08-05T01:31:50,42.805,6.029,CST-1368DR,8416,11771,15434,0.047,551
2019-08-05T01:34:51,42.805,6.029,CST-1368DR,8416,11772,15434,0.047,551
2019-08-05T01:37:53,42.805,6.029,CST-1368DR,8416,11771,15433,0.047,551
2019-08-05T01:40:55,42.805,6.029,CST-1368DR,8416,11772,15435,0.047,551
2019-08-05T01:43:56,42.805,6.029,CST-1368DR,8416,11773,15437,0.046,551
2019-08-05T01:46:58,42.805,6.029,CST-1368DR,8416,11773,15437,0.046,551
2019-08-05T01:50:00,42.805,6.029,CST-1368DR,8416,11773,15437,0.046,551
2019-08-05T01:53:01,42.805,6.029,CST-1368DR,8415,11772,15436,0.046,550
2019-08-05T01:56:03,42.805,6.029,CST-1368DR,8415,11772,15437,0.046,551
2019-08-05T01:59:05,42.805,6.029,CST-1368DR,8415,11766,15429,0.048,551
2019-08-05T02:02:06,42.805,6.029,CST-1368DR,8415,11769,15433,0.047,551
2019-08-05T02:05:08,42.805,6.029,CST-1368DR,8415,11770,15434,0.047,551
2019-08-05T02:08:10,42.805,6.029,CST-1368DR,8415,11770,15434,0.047,551
2019-08-05T02:11:12,42.805,6.029,CST-1368DR,8415,11771,15435,0.047,551
2019-08-05T02:14:13,42.805,6.029,CST-1368DR,8415,11772,15436,0.046,551
2019-08-05T02:17:15,42.805,6.029,CST-1368DR,8415,11771,15435,0.047,551
2019-08-05T02:20:17,42.805,6.029,CST-1368DR,8415,11772,15436,0.046,551
2019-08-05T02:23:19,42.805,6.029,CST-1368DR,8415,11772,15437,0.046,551
2019-08-05T02:26:20,42.805,6.029,CST-1368DR,8415,11766,15429,0.048,551
2019-08-05T02:29:22,42.805,6.029,CST-1368DR,8415,11773,15438,0.046,551
2019-08-05T02:32:24,42.805,6.029,CST-1368DR,8415,11770,15434,0.047,551
2019-08-05T02:35:26,42.805,6.029,CST-1368DR,8415,11772,15436,0.046,551
2019-08-05T02:38:27,42.805,6.029,CST-1368DR,8415,11772,15437,0.046,551
2019-08-05T02:41:29,42.805,6.029,CST-1368DR,8415,11773,15438,0.046,551
2019-08-05T02:44:31,42.805,6.029,CST-1368DR,8415,11772,15436,0.046,551
2019-08-05T02:47:33,42.805,6.029,CST-1368DR,8415,11770,15434,0.047,551
2019-08-05T02:50:35,42.805,6.029,CST-1368DR,8415,11770,15434,0.047,551
2019-08-05T02:53:36,42.805,6.029,CST-1368DR,8415,11771,15435,0.047,551
2019-08-05T02:56:38,42.805,6.029,CST-1368DR,8415,11772,15437,0.046,551
2019-08-05T02:59:40,42.805,6.029,CST-1368DR,8415,11767,15430,0.048,550
2019-08-05T03:02:42,42.805,6.029,CST-1368DR,8415,11772,15437,0.046,551
2019-08-05T03:05:44,42.805,6.029,CST-1368DR,8415,11762,15424,0.049,551
2019-08-05T03:08:45,42.805,6.029,CST-1368DR,8415,11771,15435,0.047,551
2019-08-05T03:11:47,42.805,6.029,CST-1368DR,8415,11772,15437,0.046,551
2019-08-05T03:14:49,42.805,6.029,CST-1368DR,8415,11770,15434,0.047,551
2019-08-05T03:17:51,42.805,6.029,CST-1368DR,8415,11772,15436,0.046,551
2019-08-05T03:20:53,42.805,6.029,CST-1368DR,8415,11770,15434,0.047,551
2019-08-05T03:23:54,42.805,6.029,CST-1368DR,8415,11772,15437,0.046,551
2019-08-05T03:26:56,42.805,6.029,CST-1368DR,8415,11772,15437,0.046,550
2019-08-05T03:29:58,42.805,6.029,CST-1368DR,8415,11770,15434,0.047,550
2019-08-05T03:33:00,42.805,6.029,CST-1368DR,8415,11770,15434,0.047,551
2019-08-05T03:36:01,42.805,6.029,CST-1368DR,8415,11770,15434,0.047,551
2019-08-05T03:39:03,42.805,6.029,CST-1368DR,8415,11772,15437,0.046,551
2019-08-05T03:42:05,42.805,6.029,CST-1368DR,8415,11772,15436,0.046,551
2019-08-05T03:45:07,42.805,6.029,CST-1368DR,8415,11773,15437,0.046,551
2019-08-05T03:48:08,42.805,6.029,CST-1368DR,8415,11772,15436,0.046,551
2019-08-05T03:51:10,42.805,6.029,CST-1368DR,8415,11771,15435,0.047,551
2019-08-05T03:54:12,42.805,6.029,CST-1368DR,8415,11771,15435,0.047,551
2019-08-05T03:57:14,42.805,6.029,CST-1368DR,8415,11770,15434,0.047,551
2019-08-05T04:00:15,42.805,6.029,CST-1368DR,8415,11770,15434,0.047,551
2019-08-05T04:03:17,42.805,6.029,CST-1368DR,8415,11772,15437,0.046,551
2019-08-05T04:06:19,42.805,6.029,CST-1368DR,8415,11772,15437,0.046,551
2019-08-05T04:09:21,42.805,6.029,CST-1368DR,8415,11772,15436,0.046,551
2019-08-05T04:12:23,42.805,6.029,CST-1368DR,8415,11769,15432,0.047,550
2019-08-05T04:15:24,42.805,6.029,CST-1368DR,8415,11769,15433,0.047,551
2019-08-05T04:18:26,42.805,6.029,CST-1368DR,8415,11771,15435,0.047,551
2019-08-05T04:21:28,42.805,6.029,CST-1368DR,8415,11772,15436,0.046,551
2019-08-05T04:24:30,42.805,6.029,CST-1368DR,8414,11767,15432,0.047,551
2019-08-05T04:27:32,42.805,6.029,CST-1368DR,8414,11770,15436,0.046,551
2019-08-05T04:30:34,42.805,6.029,CST-1368DR,8414,11769,15435,0.047,551
2019-08-05T04:33:36,42.805,6.029,CST-1368DR,8414,11771,15437,0.046,551
2019-08-05T04:36:37,42.805,6.029,CST-1368DR,8414,11772,15438,0.046,551
2019-08-05T04:39:39,42.805,6.029,CST-1368DR,8414,11771,15437,0.046,551
2019-08-05T04:42:41,42.805,6.029,CST-1368DR,8414,11769,15435,0.047,551
2019-08-05T04:45:43,42.805,6.029,CST-1368DR,8414,11771,15437,0.046,551
2019-08-05T04:48:45,42.805,6.029,CST-1368DR,8414,11771,15437,0.046,551
2019-08-05T04:51:46,42.805,6.029,CST-1368DR,8414,11767,15432,0.047,551
2019-08-05T04:54:48,42.805,6.029,CST-1368DR,8414,11771,15437,0.046,550
2019-08-05T04:57:50,42.805,6.029,CST-1368DR,8414,11770,15436,0.046,551
2019-08-05T05:00:52,42.805,6.029,CST-1368DR,8414,11771,15437,0.046,551
2019-08-05T05:03:53,42.805,6.029,CST-1368DR,8414,11771,15437,0.046,551
2019-08-05T05:06:55,42.805,6.029,CST-1368DR,8414,11769,15435,0.047,551
2019-08-05T05:09:57,42.805,6.029,CST-1368DR,8414,11772,15438,0.046,551
2019-08-05T05:12:59,42.805,6.029,CST-1368DR,8414,11771,15437,0.046,551
2019-08-05T05:16:01,42.805,6.029,CST-1368DR,8414,11771,15437,0.046,551
2019-08-05T05:19:03,42.805,6.029,CST-1368DR,8414,11770,15436,0.046,551
2019-08-05T05:22:04,42.805,6.029,CST-1368DR,8414,11770,15436,0.046,550
2019-08-05T05:25:06,42.805,6.029,CST-1368DR,8414,11769,15435,0.047,551
2019-08-05T05:28:08,42.805,6.029,CST-1368DR,8414,11770,15435,0.047,551
2019-08-05T05:31:10,42.805,6.029,CST-1368DR,8414,11769,15435,0.047,551
2019-08-05T05:34:12,42.805,6.029,CST-1368DR,8414,11768,15433,0.047,551
2019-08-05T05:37:14,42.805,6.029,CST-1368DR,8414,11764,15428,0.048,551
2019-08-05T05:40:15,42.805,6.029,CST-1368DR,8414,11769,15435,0.047,551
2019-08-05T05:43:17,42.805,6.029,CST-1368DR,8414,11770,15436,0.046,551
2019-08-05T05:46:19,42.805,6.029,CST-1368DR,8414,11765,15430,0.048,550
2019-08-05T05:49:21,42.805,6.029,CST-1368DR,8414,11770,15435,0.047,551
2019-08-05T05:52:23,42.805,6.029,CST-1368DR,8414,11769,15435,0.047,551
2019-08-05T05:55:24,42.805,6.029,CST-1368DR,8414,11770,15436,0.046,551
2019-08-05T05:58:26,42.805,6.029,CST-1368DR,8414,11770,15436,0.046,551
2019-08-05T06:01:28,42.805,6.029,CST-1368DR,8414,11771,15437,0.046,551
2019-08-05T06:04:30,42.805,6.029,CST-1368DR,8414,11770,15436,0.046,551
2019-08-05T06:07:32,42.805,6.029,CST-1368DR,8414,11769,15434,0.047,551
2019-08-05T06:10:34,42.805,6.029,CST-1368DR,8414,11765,15430,0.048,550
2019-08-05T06:13:36,42.805,6.029,CST-1368DR,8413,11772,15440,0.045,551
2019-08-05T06:16:37,42.805,6.029,CST-1368DR,8414,11767,15432,0.047,551
2019-08-05T06:19:39,42.805,6.029,CST-1368DR,8414,11769,15435,0.047,551
2019-08-05T06:22:41,42.805,6.029,CST-1368DR,8414,11767,15432,0.047,551
2019-08-05T06:25:43,42.805,6.029,CST-1368DR,8414,11771,15437,0.046,551
2019-08-05T06:28:45,42.805,6.029,CST-1368DR,8414,11771,15437,0.046,551
2019-08-05T06:31:47,42.805,6.029,CST-1368DR,8414,11771,15437,0.046,551
2019-08-05T06:34:48,42.805,6.029,CST-1368DR,8414,11771,15437,0.046,551
2019-08-05T06:37:50,42.805,6.029,CST-1368DR,8414,11770,15436,0.046,551
2019-08-05T06:40:52,42.805,6.029,CST-1368DR,8413,11771,15439,0.046,551
2019-08-05T06:43:54,42.805,6.029,CST-1368DR,8413,11771,15439,0.046,551
2019-08-05T06:46:56,42.805,6.029,CST-1368DR,8413,11772,15440,0.045,550
2019-08-05T06:49:58,42.805,6.029,CST-1368DR,8414,11772,15438,0.046,551
2019-08-05T06:53:00,42.805,6.029,CST-1368DR,8413,11772,15440,0.045,551
2019-08-05T06:56:01,42.805,6.029,CST-1368DR,8413,11768,15435,0.047,550
2019-08-05T06:59:03,42.805,6.029,CST-1368DR,8413,11771,15439,0.046,551
2019-08-05T07:02:05,42.805,6.029,CST-1368DR,8413,11769,15437,0.046,551
2019-08-05T07:05:07,42.805,6.029,CST-1368DR,8413,11770,15438,0.046,551
2019-08-05T07:08:09,42.805,6.029,CST-1368DR,8413,11772,15440,0.045,550
2019-08-05T07:11:11,42.805,6.029,CST-1368DR,8413,11771,15439,0.046,551
2019-08-05T07:14:13,42.805,6.029,CST-1368DR,8413,11770,15438,0.046,551
2019-08-05T07:17:14,42.805,6.029,CST-1368DR,8413,11770,15437,0.046,551
2019-08-05T07:20:16,42.805,6.029,CST-1368DR,8413,11768,15434,0.047,551
2019-08-05T07:23:18,42.805,6.029,CST-1368DR,8413,11771,15438,0.046,551
2019-08-05T07:26:20,42.805,6.029,CST-1368DR,8413,11771,15439,0.046,551
2019-08-05T07:29:22,42.805,6.029,CST-1368DR,8413,11771,15438,0.046,551
2019-08-05T07:32:24,42.805,6.029,CST-1368DR,8413,11767,15434,0.047,551
2019-08-05T07:35:26,42.805,6.029,CST-1368DR,8413,11769,15437,0.046,551
2019-08-05T07:38:27,42.805,6.029,CST-1368DR,8413,11769,15436,0.046,551
2019-08-05T07:41:29,42.805,6.029,CST-1368DR,8413,11770,15438,0.046,551
2019-08-05T07:44:31,42.805,6.029,CST-1368DR,8413,11769,15437,0.046,551
2019-08-05T07:47:33,42.805,6.029,CST-1368DR,8413,11772,15440,0.045,551
2019-08-05T07:50:35,42.805,6.029,CST-1368DR,8413,11770,15438,0.046,550
2019-08-05T07:53:37,42.805,6.029,CST-1368DR,8413,11768,15435,0.047,550
2019-08-05T07:56:38,42.805,6.029,CST-1368DR,8413,11769,15436,0.046,551
2019-08-05T07:59:40,42.805,6.029,CST-1368DR,8413,11766,15433,0.047,551
2019-08-05T08:02:42,42.805,6.029,CST-1368DR,8413,11771,15438,0.046,551
2019-08-05T08:05:43,42.805,6.029,CST-1368DR,8413,11770,15437,0.046,551
2019-08-05T08:08:45,42.805,6.029,CST-1368DR,8413,11770,15437,0.046,551
2019-08-05T08:11:47,42.805,6.029,CST-1368DR,8413,11769,15436,0.046,551
2019-08-05T08:14:49,42.805,6.029,CST-1368DR,8413,11770,15438,0.046,550
2019-08-05T08:17:51,42.805,6.029,CST-1368DR,8413,11772,15440,0.045,551
2019-08-05T08:20:52,42.805,6.029,CST-1368DR,8413,11768,15435,0.047,551
2019-08-05T08:23:54,42.805,6.029,CST-1368DR,8413,11769,15436,0.046,550
2019-08-05T08:26:56,42.805,6.029,CST-1368DR,8413,11763,15428,0.048,551
2019-08-05T08:29:58,42.805,6.029,CST-1368DR,8413,11770,15438,0.046,551
2019-08-05T08:33:00,42.805,6.029,CST-1368DR,8413,11770,15437,0.046,550
2019-08-05T08:36:01,42.805,6.029,CST-1368DR,8413,11764,15429,0.048,551
2019-08-05T08:39:03,42.805,6.029,CST-1368DR,8413,11771,15439,0.046,551
2019-08-05T08:42:05,42.805,6.029,CST-1368DR,8413,11770,15438,0.046,551
2019-08-05T08:45:07,42.805,6.029,CST-1368DR,8413,11767,15433,0.047,551
2019-08-05T08:48:08,42.805,6.029,CST-1368DR,8413,11754,15416,0.052,551
2019-08-05T08:51:10,42.805,6.029,CST-1368DR,8413,11771,15439,0.046,551
2019-08-05T08:54:12,42.805,6.029,CST-1368DR,8413,11766,15433,0.047,551
2019-08-05T08:57:14,42.805,6.029,CST-1368DR,8413,11772,15440,0.045,551
2019-08-05T09:00:16,42.805,6.029,CST-1368DR,8412,11771,15440,0.045,551
2019-08-05T09:03:18,42.805,6.029,CST-1368DR,8412,11770,15439,0.046,551
2019-08-05T09:06:19,42.805,6.029,CST-1368DR,8412,11771,15440,0.045,551
2019-08-05T09:09:21,42.805,6.029,CST-1368DR,8413,11769,15436,0.046,551
2019-08-05T09:12:23,42.805,6.029,CST-1368DR,8413,11769,15436,0.046,551
2019-08-05T09:15:25,42.805,6.029,CST-1368DR,8412,11762,15428,0.048,550
2019-08-05T09:18:27,42.805,6.029,CST-1368DR,8412,11770,15439,0.046,551
2019-08-05T09:21:28,42.805,6.029,CST-1368DR,8412,11770,15439,0.046,551
2019-08-05T09:24:30,42.805,6.029,CST-1368DR,8412,11770,15440,0.045,551
2019-08-05T09:27:33,42.805,6.029,CST-1368DR,8412,11769,15438,0.046,551
2019-08-05T09:30:35,42.805,6.029,CST-1368DR,8412,11768,15437,0.046,551
2019-08-05T09:33:37,42.805,6.029,CST-1368DR,8412,11767,15435,0.047,551
2019-08-05T09:36:39,42.805,6.029,CST-1368DR,8412,11769,15437,0.046,551
2019-08-05T09:39:40,42.805,6.029,CST-1368DR,8412,11769,15438,0.046,550
2019-08-05T09:42:42,42.805,6.029,CST-1368DR,8412,11766,15434,0.047,551
2019-08-05T09:45:44,42.805,6.029,CST-1368DR,8412,11769,15437,0.046,551
2019-08-05T09:48:46,42.805,6.029,CST-1368DR,8412,11769,15437,0.046,551
2019-08-05T09:51:48,42.805,6.029,CST-1368DR,8412,11769,15438,0.046,551
2019-08-05T09:54:49,42.805,6.029,CST-1368DR,8412,11770,15439,0.046,551
2019-08-05T09:57:51,42.805,6.029,CST-1368DR,8412,11770,15439,0.046,551
2019-08-05T10:00:53,42.805,6.029,CST-1368DR,8412,11766,15434,0.047,550
2019-08-05T10:03:55,42.805,6.029,CST-1368DR,8412,11766,15434,0.047,551
2019-08-05T10:06:57,42.805,6.029,CST-1368DR,8412,11767,15435,0.047,551
2019-08-05T10:09:59,42.805,6.029,CST-1368DR,8412,11767,15436,0.046,551
2019-08-05T10:13:00,42.805,6.029,CST-1368DR,8412,11759,15425,0.049,551
2019-08-05T10:16:02,42.805,6.029,CST-1368DR,8412,11765,15433,0.047,551
2019-08-05T10:19:04,42.805,6.029,CST-1368DR,8412,11768,15436,0.046,551
2019-08-05T10:22:06,42.805,6.029,CST-1368DR,8412,11767,15435,0.047,551
2019-08-05T10:25:08,42.805,6.029,CST-1368DR,8412,11767,15435,0.047,551
2019-08-05T10:28:10,42.805,6.029,CST-1368DR,8412,11767,15436,0.046,551
2019-08-05T10:31:11,42.805,6.029,CST-1368DR,8412,11766,15434,0.047,551
2019-08-05T10:34:13,42.805,6.029,CST-1368DR,8412,11766,15434,0.047,550
2019-08-05T10:37:15,42.805,6.029,CST-1368DR,8412,11762,15428,0.048,551
2019-08-05T10:40:17,42.805,6.029,CST-1368DR,8411,11766,15435,0.047,551
2019-08-05T10:43:19,42.805,6.029,CST-1368DR,8412,11762,15428,0.048,551
2019-08-05T10:46:21,42.805,6.029,CST-1368DR,8412,11767,15436,0.046,551
2019-08-05T10:49:22,42.805,6.029,CST-1368DR,8411,11762,15430,0.048,551
2019-08-05T10:52:24,42.805,6.029,CST-1368DR,8411,11767,15436,0.046,551
2019-08-05T10:55:26,42.805,6.029,CST-1368DR,8411,11767,15436,0.046,551
2019-08-05T10:58:28,42.805,6.029,CST-1368DR,8411,11766,15435,0.047,551
2019-08-05T11:01:30,42.805,6.029,CST-1368DR,8411,11767,15436,0.046,551
2019-08-05T11:04:32,42.805,6.029,CST-1368DR,8411,11765,15435,0.047,551
2019-08-05T11:07:33,42.805,6.029,CST-1368DR,8411,11764,15433,0.047,551
2019-08-05T11:10:35,42.805,6.029,CST-1368DR,8411,11765,15434,0.047,551
2019-08-05T11:13:37,42.805,6.029,CST-1368DR,8411,11764,15432,0.047,551
2019-08-05T11:16:39,42.805,6.029,CST-1368DR,8411,11767,15437,0.046,551
2019-08-05T11:19:41,42.805,6.029,CST-1368DR,8411,11764,15433,0.047,551
2019-08-05T11:22:42,42.805,6.029,CST-1368DR,8411,11766,15435,0.047,551
2019-08-05T11:25:44,42.805,6.029,CST-1368DR,8411,11765,15435,0.047,551
2019-08-05T11:28:46,42.805,6.029,CST-1368DR,8411,11767,15437,0.046,551
2019-08-05T11:31:48,42.805,6.029,CST-1368DR,8411,11766,15436,0.046,551
2019-08-05T11:34:49,42.805,6.029,CST-1368DR,8411,11764,15433,0.047,551
2019-08-05T11:37:51,42.805,6.029,CST-1368DR,8411,11764,15433,0.047,551
2019-08-05T11:40:53,42.805,6.029,CST-1368DR,8411,11715,15368,0.064,551
2019-08-05T11:43:54,42.805,6.029,CST-1368DR,8411,11763,15432,0.047,551
2019-08-05T11:46:56,42.805,6.029,CST-1368DR,8411,11766,15436,0.046,551
2019-08-05T11:49:58,42.805,6.029,CST-1368DR,8411,11765,15435,0.047,551
2019-08-05T11:52:59,42.805,6.029,CST-1368DR,8411,11766,15436,0.046,551
2019-08-05T11:56:01,42.805,6.029,CST-1368DR,8411,11765,15434,0.047,551
2019-08-05T11:59:03,42.805,6.029,CST-1368DR,8411,11765,15434,0.047,551
2019-08-05T12:02:04,42.805,6.029,CST-1368DR,8411,11765,15435,0.047,551
2019-08-05T12:05:06,42.805,6.029,CST-1368DR,8411,11766,15436,0.046,551
2019-08-05T12:08:08,42.805,6.029,CST-1368DR,8411,11763,15432,0.047,551
2019-08-05T12:11:09,42.805,6.029,CST-1368DR,8411,11766,15435,0.047,551
2019-08-05T12:14:11,42.805,6.029,CST-1368DR,8411,11758,15425,0.049,551
2019-08-05T12:17:12,42.805,6.029,CST-1368DR,8411,11765,15434,0.047,551
2019-08-05T12:20:14,42.805,6.029,CST-1368DR,8411,11766,15435,0.047,551
2019-08-05T12:23:16,42.805,6.029,CST-1368DR,8411,11762,15430,0.048,551
2019-08-05T12:26:17,42.805,6.029,CST-1368DR,8411,11765,15434,0.047,551
2019-08-05T12:29:19,42.805,6.029,CST-1368DR,8411,11763,15432,0.047,551
2019-08-05T12:32:21,42.805,6.029,CST-1368DR,8411,11763,15431,0.048,551
2019-08-05T12:35:22,42.805,6.029,CST-1368DR,8411,11760,15428,0.048,551
2019-08-05T12:38:24,42.805,6.029,CST-1368DR,8411,11761,15429,0.048,550
2019-08-05T12:41:26,42.805,6.029,CST-1368DR,8411,11762,15430,0.048,550
2019-08-05T12:44:27,42.805,6.029,CST-1368DR,8411,11765,15434,0.047,551
2019-08-05T12:47:29,42.805,6.029,CST-1368DR,8411,11766,15435,0.047,551
2019-08-05T12:50:30,42.805,6.029,CST-1368DR,8410,11763,15434,0.047,551
2019-08-05T12:53:32,42.805,6.029,CST-1368DR,8411,11767,15436,0.046,551
2019-08-05T12:56:34,42.805,6.029,CST-1368DR,8410,11764,15434,0.047,551
2019-08-05T12:59:35,42.805,6.029,CST-1368DR,8410,11760,15429,0.048,550
2019-08-05T13:02:37,42.805,6.029,CST-1368DR,8410,11766,15437,0.046,551
2019-08-05T13:05:39,42.805,6.029,CST-1368DR,8410,11764,15435,0.047,551
2019-08-05T13:08:40,42.805,6.029,CST-1368DR,8410,11762,15432,0.047,551
2019-08-05T13:11:42,42.805,6.029,CST-1368DR,8410,11764,15435,0.047,551
2019-08-05T13:14:44,42.805,6.029,CST-1368DR,8410,11764,15434,0.047,551
2019-08-05T13:17:45,42.805,6.029,CST-1368DR,8410,11765,15436,0.046,551
2019-08-05T13:20:47,42.805,6.029,CST-1368DR,8410,11764,15434,0.047,551
2019-08-05T13:23:48,42.805,6.029,CST-1368DR,8410,11763,15433,0.047,551
2019-08-05T13:26:50,42.805,6.029,CST-1368DR,8410,11763,15434,0.047,551
2019-08-05T13:29:52,42.805,6.029,CST-1368DR,8410,11763,15433,0.047,550
2019-08-05T13:32:53,42.805,6.029,CST-1368DR,8410,11763,15433,0.047,551
2019-08-05T13:35:55,42.805,6.029,CST-1368DR,8410,11764,15435,0.047,551
2019-08-05T13:38:57,42.805,6.029,CST-1368DR,8410,11761,15430,0.048,551
2019-08-05T13:41:58,42.805,6.029,CST-1368DR,8410,11765,15436,0.046,551
2019-08-05T13:45:00,42.805,6.029,CST-1368DR,8410,11763,15434,0.047,551
2019-08-05T13:48:02,42.805,6.029,CST-1368DR,8410,11763,15434,0.047,551
2019-08-05T13:51:03,42.805,6.029,CST-1368DR,8410,11764,15435,0.047,551
2019-08-05T13:54:05,42.805,6.029,CST-1368DR,8410,11764,15435,0.047,551
2019-08-05T13:57:07,42.805,6.029,CST-1368DR,8410,11764,15435,0.047,551
2019-08-05T14:00:08,42.805,6.029,CST-1368DR,8410,11764,15435,0.047,551
2019-08-05T14:03:10,42.805,6.029,CST-1368DR,8410,11765,15436,0.046,551
2019-08-05T14:06:12,42.805,6.029,CST-1368DR,8410,11763,15434,0.047,551
2019-08-05T14:09:13,42.805,6.029,CST-1368DR,8410,11765,15436,0.046,551
2019-08-05T14:12:15,42.805,6.029,CST-1368DR,8410,11763,15434,0.047,550
2019-08-05T14:15:16,42.805,6.029,CST-1368DR,8410,11764,15435,0.047,551
2019-08-05T14:18:18,42.805,6.029,CST-1368DR,8410,11763,15433,0.047,551
2019-08-05T14:21:20,42.805,6.029,CST-1368DR,8410,11764,15435,0.047,551
2019-08-05T14:24:21,42.805,6.029,CST-1368DR,8410,11763,15433,0.047,551
2019-08-05T14:27:23,42.805,6.029,CST-1368DR,8410,11764,15434,0.047,551
2019-08-05T14:30:25,42.805,6.029,CST-1368DR,8410,11763,15433,0.047,551
2019-08-05T14:33:26,42.805,6.029,CST-1368DR,8410,11764,15434,0.047,551
2019-08-05T14:36:28,42.805,6.029,CST-1368DR,8410,11762,15432,0.047,550
2019-08-05T14:39:30,42.805,6.029,CST-1368DR,8410,11764,15435,0.047,551
2019-08-05T14:42:31,42.805,6.029,CST-1368DR,8410,11765,15436,0.046,551
2019-08-05T14:45:33,42.805,6.029,CST-1368DR,8409,11760,15432,0.047,551
2019-08-05T14:48:34,42.805,6.029,CST-1368DR,8409,11763,15435,0.047,551
2019-08-05T14:51:36,42.805,6.029,CST-1368DR,8409,11764,15436,0.046,551
2019-08-05T14:54:38,42.805,6.029,CST-1368DR,8409,11763,15435,0.047,550
2019-08-05T14:57:39,42.805,6.029,CST-1368DR,8410,11763,15434,0.047,551
2019-08-05T15:00:41,42.805,6.029,CST-1368DR,8409,11763,15435,0.047,551
2019-08-05T15:03:43,42.805,6.029,CST-1368DR,8410,11764,15435,0.047,551
2019-08-05T15:06:44,42.805,6.029,CST-1368DR,8409,11761,15432,0.047,551
2019-08-05T15:09:46,42.805,6.029,CST-1368DR,8409,11763,15435,0.047,550
2019-08-05T15:12:48,42.805,6.029,CST-1368DR,8409,11764,15436,0.046,551
2019-08-05T15:15:49,42.805,6.029,CST-1368DR,8409,11762,15433,0.047,550
2019-08-05T15:18:51,42.805,6.029,CST-1368DR,8409,11764,15436,0.046,551
2019-08-05T15:21:52,42.805,6.029,CST-1368DR,8409,11761,15432,0.047,551
2019-08-05T15:24:54,42.805,6.029,CST-1368DR,8409,11762,15433,0.047,551
2019-08-05T15:27:56,42.805,6.029,CST-1368DR,8409,11762,15434,0.047,551
2019-08-05T15:30:57,42.805,6.029,CST-1368DR,8409,11761,15433,0.047,551
2019-08-05T15:33:59,42.805,6.029,CST-1368DR,8409,11763,15435,0.047,550
2019-08-05T15:37:01,42.805,6.029,CST-1368DR,8409,11760,15431,0.048,551
2019-08-05T15:40:02,42.805,6.029,CST-1368DR,8409,11763,15434,0.047,551
2019-08-05T15:43:04,42.805,6.029,CST-1368DR,8409,11762,15433,0.047,551
2019-08-05T15:46:06,42.805,6.029,CST-1368DR,8409,11760,15431,0.048,551
2019-08-05T15:49:07,42.805,6.029,CST-1368DR,8409,11763,15434,0.047,551
2019-08-05T15:52:09,42.805,6.029,CST-1368DR,8409,11761,15433,0.047,551
2019-08-05T15:55:10,42.805,6.029,CST-1368DR,8409,11762,15433,0.047,551
2019-08-05T15:58:12,42.805,6.029,CST-1368DR,8409,11763,15434,0.047,551
2019-08-05T16:01:14,42.805,6.029,CST-1368DR,8409,11762,15434,0.047,551
2019-08-05T16:04:15,42.805,6.029,CST-1368DR,8409,11760,15431,0.048,551
2019-08-05T16:07:17,42.805,6.029,CST-1368DR,8409,11762,15433,0.047,550
2019-08-05T16:10:19,42.805,6.029,CST-1368DR,8409,11763,15435,0.047,551
2019-08-05T16:13:20,42.805,6.029,CST-1368DR,8409,11763,15434,0.047,551
2019-08-05T16:16:22,42.805,6.029,CST-1368DR,8409,11763,15435,0.047,551
2019-08-05T16:19:24,42.805,6.029,CST-1368DR,8409,11763,15435,0.047,551
2019-08-05T16:22:25,42.805,6.029,CST-1368DR,8409,11763,15435,0.047,551
2019-08-05T16:25:27,42.805,6.029,CST-1368DR,8409,11764,15436,0.046,551
2019-08-05T16:28:29,42.805,6.029,CST-1368DR,8409,11764,15436,0.046,551
2019-08-05T16:31:30,42.805,6.029,CST-1368DR,8409,11762,15434,0.047,551
2019-08-05T16:34:32,42.805,6.029,CST-1368DR,8409,11762,15433,0.047,551
2019-08-05T16:37:33,42.805,6.029,CST-1368DR,8409,11762,15434,0.047,551